Location: Maxwell Point
(34.0860°N, 81.2952°W)
Time: 05:49:11
(UTC-04:00)

Hubble Space Telescope - Visible Passes

Search period start: 25 September 2018 00:00
Search period end: 05 October 2018 00:00
Orbit: 537 x 541 km, 28.5° (Epoch: 24 September)

Date Brightness Start Highest point End Pass type
(mag) Time Alt. Az. Time Alt. Az. Time Alt. Az.
25 Sep 2.9 21:02:04 10° WSW 21:04:45 17° SSW 21:05:04 17° SSW visible
26 Sep 3.1 20:52:07 10° SW 20:54:16 14° SSW 20:55:22 13° S visible
27 Sep 3.4 20:42:34 10° SW 20:43:45 11° SSW 20:44:58 10° S visible
